Regional Weather Roundup
Issued by NWS

Home | Current Version | Previous Version | Graphics & Text | Print | Product List | Glossary On
Versions: 1 2 3 4 5 6 7 8 9 10 11 12 13 14 15 16 17 18 19 20 21 22 23 24 25 26 27
000
ASUS45 KBOU 192307
RWRCO

WEATHER ROUNDUP FOR COLORADO
NATIONAL WEATHER SERVICE DENVER/BOULDER CO
400 PM MST SUN FEB 19 2017

NOTE: "FAIR" INDICATES FEW OR NO CLOUDS BELOW 12000 FEET WITH NO
SIGNIFICANT WEATHER AND/OR OBSTRUCTIONS TO VISIBILITY.

COZ001>005-013-030-031-200000-
...NORTHWEST COLORADO...

CITY           SKY/WX    TMP DP  RH WIND       PRES   REMARKS
CRAIG          LGT RAIN  42  36  79 CALM      29.73R
HAYDEN         CLOUDY    37  32  81 SW5       29.74R
MEEKER         LGT RAIN  41  37  86 SW8       29.75R
MOUNT WERNER   NOT AVBL
STEAMBOAT SPGS CLOUDY    37  33  86 CALM      29.74
WALDEN         NOT AVBL
$$

COZ006>008-011-200000-
...WEST CENTRAL VALLEYS...

CITY           SKY/WX    TMP DP  RH WIND       PRES   REMARKS
GRAND JUNCTION CLOUDY    43  40  89 E6        29.79R
MONTROSE       PTSUNNY   46  29  51 N7        29.80R
EAGLE          CLOUDY    45  32  61 SW18      29.72R
RIFLE          CLOUDY    42  37  82 W26G35    29.75R
DELTA          PTSUNNY   54  29  39 W7        29.79S
NUCLA          PTSUNNY   46  32  57 SW13G18   29.85R
$$

COZ017>023-064>068-200000-
...SOUTHWEST COLORADO...

CITY           SKY/WX    TMP DP  RH WIND       PRES   REMARKS
DURANGO        PTSUNNY   42  32  67 W9        29.83S
CORTEZ         PTSUNNY   44  36  73 S13       29.84F
PAGOSA SPRINGS CLOUDY    37  30  76 SW6       29.85S
TELLURIDE      FAIR      34  20  58 SW7G22    29.85S WCI  28
WOLF CREEK PAS SNOW      18  18 100 SW18G25   29.88F VSB<1/4 WCI   2
$$

COZ009-010-012-014-032>034-037-058>063-200000-
...CENTRAL COLORADO...

CITY           SKY/WX    TMP DP  RH WIND       PRES   REMARKS
ASPEN          CLOUDY    35  33  92 N6        29.74R WCI  30
BUENA VISTA    FAIR      42  29  61 S13G18    29.70S
COPPER MTN     NOT AVBL
BERTHOUD PASS  HAZE      21  12  68 CALM      29.80S VSB 1/4
COTTONWOOD PAS PTSUNNY   37  19  48 SW15G21   29.73F
GUNNISON       FAIR      37  25  61 W9        29.79R
KREMMLING      CLOUDY    45  34  65 S7        29.71R
LEADVILLE      CLOUDY    29  25  85 S6        29.73S WCI  23
MONARCH PASS   FOG       23  21  93 W29G39    29.89F VSB<1/4 WCI   6
SALIDA         PTSUNNY   48  26  41 W15G22    29.77S
SUNLIGHT       NOT AVBL
WILKERSON PASS FAIR      32  21  64 SW12G22   29.78S WCI  23
$$

COZ069>075-200000-
...SAN LUIS VALLEY/SANGRE DE CRISTO MOUNTAINS...

CITY           SKY/WX    TMP DP  RH WIND       PRES   REMARKS
ALAMOSA        FAIR      43  27  53 SW20G26   29.75R
LA VETA PASS   PTSUNNY   32  23  69 N22G33    29.79R WCI  19
SAGUACHE       CLOUDY    45  28  53 NW5       29.72R
$$

COZ035-036-038>040-200000-
...NORTHERN COLORADO FRONT RANGE...

CITY           SKY/WX    TMP DP  RH WIND       PRES   REMARKS
DENVER INTL AP PTSUNNY   59  28  30 S29G36    29.54F
DMNS CITY PARK   N/A     60  26  27 SW10      29.53F
AURORA         PTSUNNY   58  28  32 S28G39    29.55F
FRONT RANGE AP PTSUNNY   61  28  29 SE31G40   29.56
ERIE MUNI ARPT FAIR      58  24  26 N7        29.55F
BOULDER MUN AP FAIR      57  27  30 N5        29.55F
CENTENNIAL     PTSUNNY   57  27  31 S23G31    29.55F
BROOMFIELD     CLOUDY    59  25  27 N7        29.56F
FORT COLLINS   FAIR      59  26  28 N7        29.56F
LONGMONT       FAIR      61  27  27 N8        29.57S
$$

COZ041-046-047-076>085-087-088-200000-
...PIKES PEAK/PALMER DIVIDE AND SOUTHERN FOOTHILLS...

CITY           SKY/WX    TMP DP  RH WIND       PRES   REMARKS
COLO. SPRINGS  PTSUNNY   58  18  21 S28G33    29.59F
A. F. ACADEMY  CLOUDY    54  24  31 SE15      29.60F
SCHRIEVER AFB  FAIR      55  21  26 SE28G38   29.61F
ELLICOTT       FAIR     N/A N/A N/A S21G33    29.61F
FALCON         FAIR      52  22  30 SE24G32   29.64F
FORT CARSON    FAIR      58  19  21 S23G35    29.57F
LIMON          FAIR      57  34  41 SE22      29.61F
MONUMENT HILL  FAIR      50  27  40 S17G30    29.64F
TRINIDAD       FAIR      56  13  18 S23       29.66S
$$

COZ042>045-048>051-090-091-200000-
...NORTHEAST COLORADO...

CITY           SKY/WX    TMP DP  RH WIND       PRES   REMARKS
GREELEY ARPT   FAIR      60  27  28 E5        29.55F
AKRON          FAIR      59  33  37 S28G38    29.57F
BURLINGTON     FAIR      65  32  29 S22G36    29.67F
WRAY           NOT AVBL
STERLING       FAIR      64  34  32 S21G26    29.53F
HOLYOKE        FAIR      64  36  34 S21       29.61S
FORT MORGAN    FAIR      62  27  26 S16G28    29.56S
$$

COZ086-089-092>099-200000-
...SOUTHEAST COLORADO...

CITY           SKY/WX    TMP DP  RH WIND       PRES   REMARKS
PUEBLO         FAIR      64  19  17 S26G35    29.58R
LA JUNTA       FAIR      64  30  27 S17G28    29.62S
LAMAR          FAIR      65  26  23 S22G39    29.61F
SPRINGFIELD      N/A     58  31  35 S22G29    29.69F
$$




USA.gov is the U.S. government's official web portal to all federal, state and local government web resources and services.